User: anonymous   Login
Location: Goheenville
(40.9070°N, 79.3720°W)
Time: 01:21:54
(UTC-04:00)
Language:

Cosmos 1633 - Orbit

View from above orbital plane
View from above orbital plane
View from above satellite
View from above satellite

Ground track
Ground track

The orbit data is extracted from the following two-line orbital elements,

1 15592U 85020A   16269.03411957  .00002806  00000-0  10294-3 0  9996
2 15592  82.5385 224.7686 0015326  40.7003 319.5378 15.27426552723806
Epoch (UTC): 25 September 2016 00:49:07
Eccentricity: 0.0015326
inclination: 82.5385°
perigee height: 473 km
apogee height: 494 km
right ascension of ascending node: 224.7686°
argument of perigee: 40.7003°
revolutions per day: 15.27426552
mean anomaly at epoch: 319.5378°
orbit number at epoch: 72380

The dashed part of the orbit path shows where the satellite is in the earth's shadow,  

DLR